Location: Newark
(34.6000°S, 58.3833°W)
Time: 11:33:24
(UTC+00:00)

N. Korean satellite - Pass Details

Date: 23 October 2019
Orbit: 456 x 506 km, 97.2° (Epoch: 20 November)

Event Time Altitude Azimuth Distance (km) Brightness Sun altitude
Rises 08:34:21 0° 32° (NNE) 2,600 10.4 -6.3°
Reaches altitude 10° 08:36:33 10° 41° (NE) 1,723 9.7 -5.8°
Maximum altitude 08:39:56 34° 106° (ESE) 864 8.8 -5.2°
Drops below altitude 10° 08:43:20 10° 171° (S) 1,736 9.7 -4.5°
Sets 08:45:33 0° 180° (S) 2,623 10.5 -4.1°
